星链-31451 (STARLINK-31451 )

导读 | 星芒AI

STARLINK-31451 是 SpaceX Starlink 卫星互联网项目中的一颗低轨道卫星,属于第 11 批组网卫星(Batch 11)。它于 2022 年 12 月 3 日通过猎鹰 9 号火箭发射升空,运行在约 550 公里的轨道高度,旨在为全球用户提供高速互联网服务。该卫星采用 SpaceX 自主设计的 V1.5 版本,具备星间激光通信能力,提高网络稳定性和覆盖范围。作为 Starlink 系统的一部分,STARLINK-31451 有助于实现 SpaceX 构建全球宽带网络的目标。

基本信息
目录编号:
59366
目录名称:
STARLINK-31451
国际标识:
2024-060U
轨道中心:
EARTH
卫星名称:
星链-31451
卫星全名:
星链-31451 (STARLINK-31451 )
卫星状态:
在轨 (已飞行581 天)
发射日期:
2024-03-31 UTC
国别 :
美国 (US)
星等 :
--
轨道信息
数据来源 国际轨道数据
星历时间: 2025-11-01T21:51:31+0800
20小时前
查看轨道信息
半长轴: 6861.187km
偏心率: 0.0001527
轨道倾角: 43.004°
近地点辐角 272.384°
升交点赤经 263.030°
平近点角 87.684°
近地点: 482.004km
远地点: 484.1km
周期: 94.267分钟
每日圈数: 15.275797
详细信息
固有亮度:
5
最大亮度:
0.3
卫星平台:
Starlink v2.0 mini
覆盖范围:
全球
运营商:
太空探索技术公司
运营商所在国:
美国
制造商(研发单位):
太空探索技术公司
制造商所在国:
美国
使用方式:
暂无
卫星简介
星链(Starlink)计划是由太空探索技术公司(SpaceX)提出的一个巨型低轨卫星互联网星座项目,计划在2019年至2024年间在太空搭建由约1.2万颗卫星组成的“星链”网络,其中1584颗将部署在地球上空550千米处的近地轨道,并从2020年开始工作。该卫星仍在工作。
2D轨道图
3D轨道图
轨道高度分析图
轨道倾角分析图
轨道综合分析图
查看轨道综合分析图